XML Sitemap

This is a XML Sitemap which is supposed to be processed by search engines which follow the XML Sitemap standard like Ask.com, Bing, Google and Yahoo.
It was generated using the WordPress content management system and the Google Sitemap Generator Plugin by Arne Brachhold.
You can find more information about XML sitemaps on sitemaps.org and Google's list of sitemap programs.

URLPriorityChange frequencyLast modified (GMT)
http://download.yallablog.net/144502/windows-7-codecs-2-8-5/60%Monthly2011-04-30 04:04
http://download.yallablog.net/144503/windows-7-codecs-2-8-5/60%Monthly2011-04-30 04:04
http://download.yallablog.net/144500/firefox-4-1/60%Monthly2011-04-29 12:00
http://download.yallablog.net/144501/ad-aware-9-0-5-0/60%Monthly2011-04-29 10:00
http://download.yallablog.net/144496/google-chrome-12-0-742-12-beta/60%Monthly2011-04-29 06:05
http://download.yallablog.net/144497/orbit-downloader-4-1-0/60%Monthly2011-04-29 05:33
http://download.yallablog.net/144498/sandra-lite-2011-sp2-17-50/60%Monthly2011-04-29 04:54
http://download.yallablog.net/144499/seamonkey-2-0-14/60%Monthly2011-04-29 04:39
http://download.yallablog.net/144494/firefox-4-0-1/60%Monthly2011-04-28 12:19
http://download.yallablog.net/144495/thunderbird-3-1-10/60%Monthly2011-04-28 11:42
http://download.yallablog.net/144491/dexpot-1-5-9/60%Monthly2011-04-28 11:07
http://download.yallablog.net/144492/maxthon-3-0-23-800-beta/60%Monthly2011-04-28 10:36
http://download.yallablog.net/144493/ati-catalyst-drivers-11-4-vista/60%Monthly2011-04-28 05:44
http://download.yallablog.net/144480/ea-download-manager-8-0-1-1430/60%Monthly2011-04-28 05:33
http://download.yallablog.net/144481/ea-download-manager-8-0-1-1430-2/60%Monthly2011-04-28 05:33
http://download.yallablog.net/144482/evernote-4-3-1-4479/60%Monthly2011-04-28 05:28
http://download.yallablog.net/144483/metrotwit-0-7-0-beta/60%Monthly2011-04-28 05:20
http://download.yallablog.net/144484/utorrent-3-0-beta-25229/60%Monthly2011-04-28 05:15
http://download.yallablog.net/144485/dbpoweramp-music-converter-14-1/60%Monthly2011-04-28 05:09
http://download.yallablog.net/144486/vista-codec-package-5-9-4/60%Monthly2011-04-28 05:05
http://download.yallablog.net/144487/freemake-video-converter-2-1-4-0/60%Monthly2011-04-28 04:57
http://download.yallablog.net/144488/freemake-video-converter-2-1-4-0-2/60%Monthly2011-04-28 04:57
http://download.yallablog.net/144489/antivir-personal-10-0-0-648/60%Monthly2011-04-28 04:56
http://download.yallablog.net/144490/antivir-personal-10-0-0-648-2/60%Monthly2011-04-28 04:56
http://download.yallablog.net/144478/core-ftp-le-2-2-build-1679/60%Monthly2011-04-27 11:31
http://download.yallablog.net/144479/ccleaner-temp-clean-3-06/60%Monthly2011-04-27 06:00
http://download.yallablog.net/144477/avg-free-edition-10-0-1325-32-bit/60%Monthly2011-04-27 05:10
http://download.yallablog.net/144476/ccleaner-3-06-1433/60%Monthly2011-04-26 15:13
http://download.yallablog.net/144473/fastpictureviewer-1-5-build-188-32-bit/60%Monthly2011-04-26 09:41
http://download.yallablog.net/144474/dropbox-1-1-28/60%Monthly2011-04-26 08:22
http://download.yallablog.net/144475/google-chrome-12-0-742-9-beta/60%Monthly2011-04-26 04:43
http://download.yallablog.net/144472/super-v2011-build-48/60%Monthly2011-04-25 04:45
http://download.yallablog.net/144468/blender-2-57a/60%Monthly2011-04-24 06:30
http://download.yallablog.net/144469/java-runtime-environment-1-6-0-25-32-bit/60%Monthly2011-04-24 06:07
http://download.yallablog.net/144470/kmplayer-3-0-0-1440-2/60%Monthly2011-04-24 05:53
http://download.yallablog.net/144471/windows-7-codecs-2-8-3/60%Monthly2011-04-24 01:00
http://download.yallablog.net/144466/google-chrome-12-0-742-5-beta/60%Monthly2011-04-23 04:26
http://download.yallablog.net/144467/foobar2000-1-1-6/60%Monthly2011-04-23 04:00
http://download.yallablog.net/144462/kindle-for-pc-1-5-0-build-32337/60%Monthly2011-04-22 05:04
http://download.yallablog.net/144463/virtualbox-4-0-6-71344/60%Monthly2011-04-22 04:23
http://download.yallablog.net/144464/superantispyware-4-51-1000/60%Monthly2011-04-22 04:09
http://download.yallablog.net/144465/windows-7-codecs-2-8-2/60%Monthly2011-04-22 04:05
http://download.yallablog.net/144453/nero-burning-rom-10-6-1/60%Monthly2011-04-21 09:00
http://download.yallablog.net/144455/google-chrome-12-0-742-0-beta/60%Monthly2011-04-21 07:19
http://download.yallablog.net/144456/picasa-3-8-build-117-43/60%Monthly2011-04-21 05:32
http://download.yallablog.net/144457/miranda-0-9-20/60%Monthly2011-04-21 05:29
http://download.yallablog.net/144458/netbeans-ide-7-0/60%Monthly2011-04-21 05:06
http://download.yallablog.net/144459/google-toolbar-7-0-1614-2212-ie/60%Monthly2011-04-21 05:05
http://download.yallablog.net/144460/topstyle-4-0-0-87/60%Monthly2011-04-21 05:03
http://download.yallablog.net/144461/skype-5-3-0-111/60%Monthly2011-04-21 04:51
http://download.yallablog.net/144452/silverlight-4-0-60310/60%Monthly2011-04-20 04:47
http://download.yallablog.net/144451/nero-burning-rom-10-6-10600/60%Monthly2011-04-20 04:38
http://download.yallablog.net/144450/itunes-10-2-2-32-bit/60%Monthly2011-04-19 09:12
http://download.yallablog.net/144454/winzip-15-5-9/60%Monthly2011-04-19 09:00
http://download.yallablog.net/144446/wireshark-1-4-6-32-bit/60%Monthly2011-04-19 06:03
http://download.yallablog.net/144447/avast-free-antivirus-6-0-1091/60%Monthly2011-04-19 04:55
http://download.yallablog.net/144448/winzip-15-5-9468/60%Monthly2011-04-19 04:52
http://download.yallablog.net/144449/nvidia-forceware-270-61-whql-vista/60%Monthly2011-04-19 04:39
http://download.yallablog.net/144436/postgresql-9-0-4/60%Monthly2011-04-18 05:45
http://download.yallablog.net/144437/icq-7-5-5238/60%Monthly2011-04-18 04:50
http://download.yallablog.net/144438/rainlendar-2-9-beta-105/60%Monthly2011-04-18 04:37
http://download.yallablog.net/144439/vlc-media-player-1-1-9-2/60%Monthly2011-04-17 13:00
http://download.yallablog.net/144440/media-monkey-3-2-5-1/60%Monthly2011-04-17 13:00
http://download.yallablog.net/144441/any-video-converter-3-22-2/60%Monthly2011-04-17 13:00
http://download.yallablog.net/144442/jetaudio-8-0-14-basic-2/60%Monthly2011-04-17 13:00
http://download.yallablog.net/144443/defraggler-2-04/60%Monthly2011-04-17 13:00
http://download.yallablog.net/144444/realplayer-14-0-3/60%Monthly2011-04-17 13:00
http://download.yallablog.net/144445/orbit-downloader-4-0-11-2/60%Monthly2011-04-17 13:00
http://download.yallablog.net/144435/smartftp-4-0-1178-0/60%Monthly2011-04-17 05:18
http://download.yallablog.net/144430/adobe-air-2-6-0-19140/60%Monthly2011-04-16 05:45
http://download.yallablog.net/144431/flash-player-10-2-159-1-non-ie/60%Monthly2011-04-16 05:23
http://download.yallablog.net/144432/flash-player-10-2-159-1-ie/60%Monthly2011-04-16 05:18
http://download.yallablog.net/144433/fastpictureviewer-1-5-build-185-32-bit/60%Monthly2011-04-16 04:39
http://download.yallablog.net/144434/foobar2000-1-1-6-beta-5/60%Monthly2011-04-16 04:25
http://download.yallablog.net/144423/orbit-downloader-4-0-11/60%Monthly2011-04-15 08:51
http://download.yallablog.net/144424/fraps-3-4-2/60%Monthly2011-04-15 08:43
http://download.yallablog.net/144425/maxthon-3-0-22-2000/60%Monthly2011-04-15 06:55
http://download.yallablog.net/144426/dropbox-1-1-23/60%Monthly2011-04-15 06:50
http://download.yallablog.net/144427/jetaudio-8-0-14-basic/60%Monthly2011-04-15 05:38
http://download.yallablog.net/144428/safari-5-0-5/60%Monthly2011-04-15 04:29
http://download.yallablog.net/144429/utorrent-2-2-1-build-25203/60%Monthly2011-04-15 04:00
http://download.yallablog.net/144422/defraggler-2-04-297/60%Monthly2011-04-14 17:09
http://download.yallablog.net/144416/evernote-4-3-0-4368/60%Monthly2011-04-14 07:09
http://download.yallablog.net/144417/silverlight-5-0-60401-beta/60%Monthly2011-04-14 06:01
http://download.yallablog.net/144418/immunet-protect-free-3-0-1-6056/60%Monthly2011-04-14 05:57
http://download.yallablog.net/144419/xnview-v1-98-beta-3/60%Monthly2011-04-14 04:46
http://download.yallablog.net/144420/autoruns-10-07/60%Monthly2011-04-14 04:17
http://download.yallablog.net/144421/blender-2-57/60%Monthly2011-04-14 04:15
http://download.yallablog.net/144410/any-video-converter-3-22/60%Monthly2011-04-13 11:51
http://download.yallablog.net/144411/cpu-z-1-57-1/60%Monthly2011-04-13 09:58
http://download.yallablog.net/144412/realplayer-14-0-3-647/60%Monthly2011-04-13 08:12
http://download.yallablog.net/144413/crossloop-2-75/60%Monthly2011-04-13 06:08
http://download.yallablog.net/144414/unlocker-1-9-1/60%Monthly2011-04-13 05:34
http://download.yallablog.net/144415/incredimail-2-build-4953/60%Monthly2011-04-13 05:07
http://download.yallablog.net/144405/7-zip-9-21-beta-32-bit/60%Monthly2011-04-13 04:55
http://download.yallablog.net/144406/digsby-beta-build-90/60%Monthly2011-04-13 04:38
http://download.yallablog.net/144407/google-chrome-12-0-733-0-beta/60%Monthly2011-04-13 04:26
http://download.yallablog.net/144408/freemake-video-converter-2-1-2-1/60%Monthly2011-04-13 03:48
http://download.yallablog.net/144409/vlc-media-player-1-1-9/60%Monthly2011-04-13 03:46
http://download.yallablog.net/144403/maxthon-3-0-22-1700-beta/60%Monthly2011-04-12 09:47
http://download.yallablog.net/144404/fresh-view-8-18/60%Monthly2011-04-12 08:41
http://download.yallablog.net/144398/faststone-image-viewer-4-5/60%Monthly2011-04-12 06:52
http://download.yallablog.net/144399/opera-11-10/60%Monthly2011-04-12 06:48
http://download.yallablog.net/144400/wireshark-1-5-1-beta-32-bit/60%Monthly2011-04-12 05:14
http://download.yallablog.net/144401/audacity-1-3-13-beta/60%Monthly2011-04-12 05:01
http://download.yallablog.net/144402/xfire-1-133-build-44183/60%Monthly2011-04-12 04:28
http://download.yallablog.net/144397/speccy-1-10-248/60%Monthly2011-04-11 13:31
http://download.yallablog.net/144395/sandra-lite-2011-sp1x-17-47/60%Monthly2011-04-11 06:28
http://download.yallablog.net/144396/mediamonkey-3-2-5-1306/60%Monthly2011-04-11 06:21
http://download.yallablog.net/144394/smartftp-4-0-1176-0/60%Monthly2011-04-10 04:43
http://download.yallablog.net/144392/gpu-z-0-5-3/60%Monthly2011-04-09 04:05
http://download.yallablog.net/144393/fastpictureviewer-1-5-build-184-32-bit/60%Monthly2011-04-09 03:48
http://download.yallablog.net/144389/auslogics-disk-defrag-3-2-0-0/60%Monthly2011-04-08 12:54
http://download.yallablog.net/144387/realtek-high-definition-audio-2-59-vista/60%Monthly2011-04-08 11:17
http://download.yallablog.net/144388/mozy-2-6-7/60%Monthly2011-04-08 06:09
http://download.yallablog.net/144384/mysql-5-5-11/60%Monthly2011-04-08 04:53
http://download.yallablog.net/144385/powerarchiver-12-00-rc3/60%Monthly2011-04-08 04:45
http://download.yallablog.net/144386/avg-free-edition-10-0-1321-32-bit/60%Monthly2011-04-08 04:26
http://download.yallablog.net/144390/windows-7-codecs-2-8-0-2/60%Monthly2011-04-07 23:00
http://download.yallablog.net/144391/skype-5-3-for-windows/60%Monthly2011-04-07 23:00
http://download.yallablog.net/144382/skype-5-3-0-108/60%Monthly2011-04-07 12:46
http://download.yallablog.net/144383/seamonkey-2-1-beta-3/60%Monthly2011-04-07 11:27
http://download.yallablog.net/144379/windows-7-codecs-2-8-0/60%Monthly2011-04-07 04:50
http://download.yallablog.net/144380/peazip-3-7-0/60%Monthly2011-04-07 04:38
http://download.yallablog.net/144381/core-ftp-le-2-2-build-1675/60%Monthly2011-04-07 04:35
http://download.yallablog.net/144378/the-bat-home-edition-5-0-8/60%Monthly2011-04-06 11:04
http://download.yallablog.net/144376/k-lite-mega-codec-pack-7-1/60%Monthly2011-04-06 10:00
http://download.yallablog.net/144377/k-lite-codec-pack-7-1-standard/60%Monthly2011-04-06 10:00
http://download.yallablog.net/144371/keepass-1-19/60%Monthly2011-04-06 06:38
http://download.yallablog.net/144372/kmplayer-3-0-0-1440/60%Monthly2011-04-06 06:14
http://download.yallablog.net/144373/google-chrome-12-0-725-0-beta/60%Monthly2011-04-06 04:59
http://download.yallablog.net/144374/k-lite-mega-codec-pack-7-10/60%Monthly2011-04-06 04:54
http://download.yallablog.net/144375/k-lite-codec-pack-7-10-full/60%Monthly2011-04-06 04:51
http://download.yallablog.net/144368/ultravnc-1-0-9-6/60%Monthly2011-04-05 06:49
http://download.yallablog.net/144369/ea-download-manager-7-3-7-4/60%Monthly2011-04-05 05:58
http://download.yallablog.net/144370/miranda-0-9-19/60%Monthly2011-04-05 05:43
http://download.yallablog.net/144364/ccleaner-3-05-1409/60%Monthly2011-04-04 13:07
http://download.yallablog.net/144365/freemake-video-converter-2-1-2-0/60%Monthly2011-04-04 11:59
http://download.yallablog.net/144366/fluffyapp-1-0-beta-8/60%Monthly2011-04-04 11:39
http://download.yallablog.net/144363/argouml-0-32-2-2/60%Monthly2011-04-04 06:57
http://download.yallablog.net/144367/camtasia-studio-7-1/60%Monthly2011-04-04 03:00
http://download.yallablog.net/144362/foobar2000-1-1-6-beta-3/60%Monthly2011-04-03 03:38
http://download.yallablog.net/144361/maxthon-3-0-22-1300-beta/60%Monthly2011-04-02 03:57
http://download.yallablog.net/144360/scribus-1-4-0-rc3/60%Monthly2011-04-01 11:44
http://download.yallablog.net/144351/win7codecs-2-7-9/60%Monthly2011-04-01 07:00
http://download.yallablog.net/144352/orbit-downloader-4-0-10-2/60%Monthly2011-04-01 07:00
http://download.yallablog.net/144353/vista-codec-package-5-9-3-2/60%Monthly2011-04-01 07:00
http://download.yallablog.net/144354/notepad-5-9-2/60%Monthly2011-04-01 07:00
http://download.yallablog.net/144355/flash-player-10-3-180-65-beta-2-non-ie/60%Monthly2011-04-01 05:19
http://download.yallablog.net/144356/flash-player-10-3-180-65-beta-2-ie/60%Monthly2011-04-01 05:18
http://download.yallablog.net/144357/adobe-air-2-7-0-19200-beta-1/60%Monthly2011-04-01 05:13
http://download.yallablog.net/144358/adobe-air-2-7-0-19200-beta-1/60%Monthly2011-04-01 05:13
http://download.yallablog.net/144359/utorrent-2-2-1-build-25154/60%Monthly2011-04-01 04:09